This is the latest recevied weather packets stored in our database for station/object WW3TRG. If no packets are shown the sender has not sent any weather packets the latest 10 day(s).
| Time | Temp. | Humidity | Pressure | Rain* | Wind** | Luminosity | Snow |
|---|---|---|---|---|---|---|---|
| 1778147459 | 8.89° C | 94% | 1009.8 hPa | 0 mm | - | 0 W/m² | - |
| 1778147155 | 8.89° C | 91% | 1009.9 hPa | 0 mm | - | 0 W/m² | - |
| 1778146852 | 8.89° C | 89% | 1009.7 hPa | 0 mm | - | 0 W/m² | - |
| 1778146549 | 8.89° C | 91% | 1009.7 hPa | 0 mm | - | 0 W/m² | - |
| 1778146248 | 8.89° C | 89% | 1009.8 hPa | 0 mm | - | 0 W/m² | - |
| 1778145944 | 8.89° C | 88% | 1009.5 hPa | 0 mm | - | 0 W/m² | - |
| 1778145641 | 9.44° C | 90% | 1009.5 hPa | 0 mm | - | 0 W/m² | - |
| 1778145338 | 9.44° C | 85% | 1009.6 hPa | 0 mm | - | 0 W/m² | - |
| 1778145034 | 9.44° C | 85% | 1009.6 hPa | 0 mm | - | 0 W/m² | - |
| 1778144729 | 9.44° C | 84% | 1009.2 hPa | 0 mm | - | 0 W/m² | - |
| 1778144427 | 9.44° C | 86% | 1009.4 hPa | 0 mm | - | 0 W/m² | - |
| 1778144124 | 9.44° C | 87% | 1009.3 hPa | 0 mm | - | 0 W/m² | - |
| 1778143820 | 8.89° C | 93% | 1009.4 hPa | 0 mm | - | 0 W/m² | - |
| 1778143517 | 8.89° C | 98% | 1009.4 hPa | 0 mm | - | 0 W/m² | - |
| 1778143214 | 8.89° C | 99% | 1009.3 hPa | 0 mm | - | 0 W/m² | - |
| 1778142910 | 8.89° C | 99% | 1009.4 hPa | 0 mm | - | 0 W/m² | - |
| 1778142607 | 8.89° C | 99% | 1009.3 hPa | 0 mm | - | 0 W/m² | - |
| 1778142303 | 8.89° C | 99% | 1009.2 hPa | 0 mm | - | 0 W/m² | - |
| 1778141999 | 8.89° C | 99% | 1009.4 hPa | 0 mm | - | 0 W/m² | - |
| 1778141696 | 8.89° C | 99% | 1009.8 hPa | 0 mm | - | 0 W/m² | - |
| 1778141393 | 8.89° C | 99% | 1009.6 hPa | 0 mm | - | 0 W/m² | - |
| 1778141089 | 8.89° C | 99% | 1009.8 hPa | 0 mm | - | 0 W/m² | - |
| 1778140784 | 8.89° C | 99% | 1009.8 hPa | 0 mm | - | 0 W/m² | - |
| 1778140481 | 9.44° C | 99% | 1009.9 hPa | 0 mm | - | 0 W/m² | - |
| 1778140178 | 8.89° C | 99% | 1009.6 hPa | 0.51 mm | - | 0 W/m² | - |
* Rain latest hour (hover to see other rain measurements)
** Current wind speed in m/s (hover to see current wind gust speed)